Time,TemperatureF,DewpointF,PressureIn,WindDirection,WindDirectionDegrees,WindSpeedMPH,WindSpeedGustMPH,Humidity,HourlyPrecipIn,Conditions,Clouds,dailyrainin,SoftwareType,DateUTC
2013-03-19 00:02:00,41.0,15.0,-100.00,NNE,31,5.0,5.0,34,-99.99,,,-99.99,,2013-03-19 06:02:00,
2013-03-19 00:21:00,40.0,15.0,-100.00,NNE,25,5.0,5.0,35,-99.99,,,-99.99,,2013-03-19 06:21:00,
2013-03-19 00:32:00,39.0,16.0,-100.00,NE,41,7.0,7.0,38,-99.99,,,-99.99,,2013-03-19 06:32:00,
2013-03-19 00:42:00,38.0,17.0,-100.00,ENE,58,5.0,5.0,42,-99.99,,,-99.99,,2013-03-19 06:42:00,
2013-03-19 00:52:00,40.0,15.0,-100.00,NE,37,4.0,4.0,35,-99.99,,,-99.99,,2013-03-19 06:52:00,
2013-03-19 01:02:00,40.0,15.0,-100.00,NE,37,4.0,4.0,35,-99.99,,,-99.99,,2013-03-19 07:02:00,
2013-03-19 01:12:00,38.0,17.0,-100.00,North,353,3.0,4.0,41,-99.99,,,-99.99,,2013-03-19 07:12:00,
2013-03-19 01:21:00,39.0,15.0,-100.00,North,4,2.0,3.0,37,-99.99,,,-99.99,,2013-03-19 07:21:00,
2013-03-19 01:32:00,41.0,15.0,-100.00,NE,47,7.0,10.0,33,-99.99,,,-99.99,,2013-03-19 07:32:00,
2013-03-19 01:42:00,41.0,15.0,-100.00,NNE,24,6.0,11.0,34,-99.99,,,-99.99,,2013-03-19 07:42:00,
2013-03-19 01:52:00,41.0,15.0,-100.00,NNE,24,6.0,11.0,34,-99.99,,,-99.99,,2013-03-19 07:52:00,
2013-03-19 02:02:00,41.0,16.0,-100.00,NNE,29,7.0,10.0,35,-99.99,,,-99.99,,2013-03-19 08:02:00,
2013-03-19 02:12:00,40.0,15.0,-100.00,NNE,32,6.0,8.0,35,-99.99,,,-99.99,,2013-03-19 08:12:00,
2013-03-19 02:21:00,40.0,15.0,-100.00,NNE,32,6.0,8.0,35,-99.99,,,-99.99,,2013-03-19 08:21:00,
2013-03-19 02:32:00,41.0,16.0,-100.00,NNE,32,8.0,11.0,35,-99.99,,,-99.99,,2013-03-19 08:32:00,
2013-03-19 02:41:00,41.0,15.0,-100.00,NE,40,9.0,12.0,34,-99.99,,,-99.99,,2013-03-19 08:41:00,
2013-03-19 02:52:00,41.0,15.0,-100.00,NE,40,9.0,12.0,34,-99.99,,,-99.99,,2013-03-19 08:52:00,
2013-03-19 03:02:00,40.0,15.0,-100.00,NNE,27,6.0,9.0,35,-99.99,,,-99.99,,2013-03-19 09:02:00,
2013-03-19 03:12:00,40.0,15.0,-100.00,NE,48,5.0,8.0,35,-99.99,,,-99.99,,2013-03-19 09:12:00,
2013-03-19 03:22:00,40.0,15.0,-100.00,NE,48,5.0,8.0,35,-99.99,,,-99.99,,2013-03-19 09:22:00,
2013-03-19 03:32:00,40.0,15.0,-100.00,NE,47,7.0,9.0,35,-99.99,,,-99.99,,2013-03-19 09:32:00,
2013-03-19 03:42:00,40.0,15.0,-100.00,NE,39,7.0,9.0,34,-99.99,,,-99.99,,2013-03-19 09:42:00,
2013-03-19 03:52:00,40.0,14.0,-100.00,NNE,28,7.0,9.0,34,-99.99,,,-99.99,,2013-03-19 09:52:00,
2013-03-19 04:03:00,39.0,14.0,-100.00,NNE,33,5.0,7.0,35,-99.99,,,-99.99,,2013-03-19 10:03:00,
2013-03-19 04:12:00,40.0,14.0,-100.00,NE,46,6.0,7.0,35,-99.99,,,-99.99,,2013-03-19 10:12:00,
2013-03-19 04:22:00,40.0,14.0,-100.00,NE,42,4.0,6.0,34,-99.99,,,-99.99,,2013-03-19 10:22:00,
2013-03-19 04:32:00,40.0,14.0,-100.00,NE,42,4.0,6.0,34,-99.99,,,-99.99,,2013-03-19 10:32:00,
2013-03-19 04:41:00,37.0,15.0,-100.00,NNE,17,5.0,5.0,40,-99.99,,,-99.99,,2013-03-19 10:41:00,
2013-03-19 04:52:00,37.0,15.0,-100.00,NNE,17,5.0,5.0,40,-99.99,,,-99.99,,2013-03-19 10:52:00,
2013-03-19 05:02:00,37.0,17.0,-100.00,North,3,5.0,5.0,44,-99.99,,,-99.99,,2013-03-19 11:02:00,
2013-03-19 05:12:00,37.0,18.0,-100.00,North,350,3.0,4.0,45,-99.99,,,-99.99,,2013-03-19 11:12:00,
2013-03-19 05:22:00,37.0,18.0,-100.00,North,350,3.0,4.0,45,-99.99,,,-99.99,,2013-03-19 11:22:00,
2013-03-19 05:32:00,37.0,17.0,-100.00,NNE,24,4.0,5.0,45,-99.99,,,-99.99,,2013-03-19 11:32:00,
2013-03-19 05:42:00,37.0,17.0,-100.00,NNE,16,5.0,6.0,43,-99.99,,,-99.99,,2013-03-19 11:42:00,
2013-03-19 05:52:00,37.0,17.0,-100.00,NE,34,4.0,5.0,44,-99.99,,,-99.99,,2013-03-19 11:52:00,
2013-03-19 06:02:00,37.0,17.0,-100.00,NE,43,5.0,5.0,44,-99.99,,,-99.99,,2013-03-19 12:02:00,
2013-03-19 06:12:00,36.0,17.0,-100.00,NE,36,5.0,6.0,46,-99.99,,,-99.99,,2013-03-19 12:12:00,
2013-03-19 06:22:00,36.0,17.0,-100.00,NE,36,5.0,6.0,46,-99.99,,,-99.99,,2013-03-19 12:22:00,
2013-03-19 06:32:00,36.0,17.0,-100.00,NE,37,4.0,5.0,47,-99.99,,,-99.99,,2013-03-19 12:32:00,
2013-03-19 06:42:00,35.0,18.0,-100.00,NE,37,4.0,5.0,47,-99.99,,,-99.99,,2013-03-19 12:42:00,
2013-03-19 06:51:00,35.0,18.0,-100.00,NNE,30,5.0,5.0,48,-99.99,,,-99.99,,2013-03-19 12:51:00,
2013-03-19 07:02:00,35.0,18.0,-100.00,NNE,13,4.0,4.0,49,-99.99,,,-99.99,,2013-03-19 13:02:00,
2013-03-19 07:12:00,36.0,18.0,-100.00,North,5,5.0,5.0,47,-99.99,,,-99.99,,2013-03-19 13:12:00,
2013-03-19 07:22:00,35.0,17.0,-100.00,North,2,7.0,7.0,47,-99.99,,,-99.99,,2013-03-19 13:22:00,
2013-03-19 07:32:00,35.0,17.0,-100.00,North,2,7.0,7.0,47,-99.99,,,-99.99,,2013-03-19 13:32:00,
2013-03-19 07:42:00,37.0,5.0,-100.00,NE,37,10.0,14.0,26,-99.99,,,-99.99,,2013-03-19 13:42:00,
2013-03-19 07:52:00,37.0,5.0,-100.00,NNE,24,6.0,8.0,25,-99.99,,,-99.99,,2013-03-19 13:52:00,
2013-03-19 08:01:00,37.0,5.0,-100.00,NNE,24,6.0,8.0,25,-99.99,,,-99.99,,2013-03-19 14:01:00,
2013-03-19 08:12:00,36.0,5.0,-100.00,NNE,23,7.0,11.0,26,-99.99,,,-99.99,,2013-03-19 14:12:00,
2013-03-19 08:22:00,36.0,6.0,-100.00,NNE,20,7.0,8.0,28,-99.99,,,-99.99,,2013-03-19 14:22:00,
2013-03-19 08:32:00,35.0,6.0,-100.00,North,6,4.0,7.0,29,-99.99,,,-99.99,,2013-03-19 14:32:00,
2013-03-19 08:42:00,35.0,9.0,-100.00,NNW,345,2.0,4.0,32,-99.99,,,-99.99,,2013-03-19 14:42:00,
2013-03-19 08:52:00,34.0,10.0,-100.00,North,5,5.0,6.0,35,-99.99,,,-99.99,,2013-03-19 14:52:00,
2013-03-19 09:02:00,35.0,11.0,-100.00,North,349,5.0,7.0,36,-99.99,,,-99.99,,2013-03-19 15:02:00,
2013-03-19 09:12:00,35.0,15.0,-100.00,North,2,6.0,7.0,42,-99.99,,,-99.99,,2013-03-19 15:12:00,
2013-03-19 09:21:00,35.0,15.0,-100.00,North,350,6.0,8.0,42,-99.99,,,-99.99,,2013-03-19 15:21:00,
2013-03-19 09:33:00,36.0,15.0,-100.00,NNW,347,6.0,7.0,41,-99.99,,,-99.99,,2013-03-19 15:33:00,
2013-03-19 09:43:00,37.0,17.0,-100.00,NNW,336,6.0,9.0,43,-99.99,,,-99.99,,2013-03-19 15:43:00,
2013-03-19 09:53:00,38.0,13.0,-100.00,NNW,331,6.0,7.0,36,-99.99,,,-99.99,,2013-03-19 15:53:00,
2013-03-19 10:03:00,39.0,14.0,-100.00,North,3,3.0,7.0,35,-99.99,,,-99.99,,2013-03-19 16:03:00,
2013-03-19 10:12:00,40.0,13.0,-100.00,NNW,337,7.0,8.0,32,-99.99,,,-99.99,,2013-03-19 16:12:00,
2013-03-19 10:23:00,41.0,10.0,-100.00,NNW,337,7.0,9.0,27,-99.99,,,-99.99,,2013-03-19 16:23:00,
2013-03-19 10:33:00,40.0,11.0,-100.00,NNW,339,8.0,11.0,28,-99.99,,,-99.99,,2013-03-19 16:33:00,
2013-03-19 10:43:00,41.0,9.0,-100.00,NNW,338,9.0,10.0,27,-99.99,,,-99.99,,2013-03-19 16:43:00,
2013-03-19 10:53:00,41.0,11.0,-100.00,NNW,331,7.0,9.0,28,-99.99,,,-99.99,,2013-03-19 16:53:00,
2013-03-19 11:02:00,41.0,11.0,-100.00,NNW,334,9.0,11.0,27,-99.99,,,-99.99,,2013-03-19 17:02:00,
2013-03-19 11:13:00,42.0,11.0,-100.00,NNW,335,9.0,12.0,27,-99.99,,,-99.99,,2013-03-19 17:13:00,
2013-03-19 11:23:00,42.0,10.0,-100.00,NNW,332,10.0,12.0,26,-99.99,,,-99.99,,2013-03-19 17:23:00,
2013-03-19 11:34:00,43.0,11.0,-100.00,NNW,327,10.0,12.0,26,-99.99,,,-99.99,,2013-03-19 17:34:00,
2013-03-19 11:43:00,43.0,12.0,-100.00,NNW,328,6.0,10.0,27,-99.99,,,-99.99,,2013-03-19 17:43:00,
2013-03-19 11:52:00,43.0,10.0,-100.00,NNW,335,7.0,11.0,25,-99.99,,,-99.99,,2013-03-19 17:52:00,
2013-03-19 12:02:00,44.0,4.0,-100.00,NNW,327,7.0,11.0,18,-99.99,,,-99.99,,2013-03-19 18:02:00,
2013-03-19 12:13:00,44.0,6.0,-100.00,NNW,329,9.0,11.0,20,-99.99,,,-99.99,,2013-03-19 18:13:00,
2013-03-19 12:23:00,45.0,4.0,-100.00,North,8,5.0,7.0,17,-99.99,,,-99.99,,2013-03-19 18:23:00,
2013-03-19 12:33:00,46.0,0.0,-100.00,NE,44,4.0,7.0,14,-99.99,,,-99.99,,2013-03-19 18:33:00,
2013-03-19 12:42:00,47.0,5.0,-100.00,NNE,14,5.0,8.0,17,-99.99,,,-99.99,,2013-03-19 18:42:00,
2013-03-19 12:52:00,48.0,2.0,-100.00,NNW,337,2.0,5.0,15,-99.99,,,-99.99,,2013-03-19 18:52:00,
2013-03-19 13:02:00,47.0,3.0,-100.00,North,350,3.0,7.0,16,-99.99,,,-99.99,,2013-03-19 19:02:00,
2013-03-19 13:12:00,47.0,4.0,-100.00,WNW,295,3.0,7.0,16,-99.99,,,-99.99,,2013-03-19 19:12:00,
2013-03-19 13:22:00,48.0,1.0,-100.00,WSW,246,1.0,5.0,13,-99.99,,,-99.99,,2013-03-19 19:22:00,
2013-03-19 13:32:00,48.0,-3.0,-100.00,NNW,331,3.0,8.0,11,-99.99,,,-99.99,,2013-03-19 19:32:00,
2013-03-19 13:42:00,49.0,0.0,-100.00,NW,323,2.0,9.0,12,-99.99,,,-99.99,,2013-03-19 19:42:00,
2013-03-19 13:52:00,48.0,-2.0,-100.00,NE,34,3.0,7.0,11,-99.99,,,-99.99,,2013-03-19 19:52:00,
2013-03-19 14:02:00,49.0,2.0,-100.00,NW,318,7.0,12.0,14,-99.99,,,-99.99,,2013-03-19 20:02:00,
2013-03-19 14:11:00,50.0,2.0,-100.00,North,353,6.0,10.0,13,-99.99,,,-99.99,,2013-03-19 20:11:00,
2013-03-19 14:22:00,49.0,-1.0,-100.00,NW,324,2.0,8.0,12,-99.99,,,-99.99,,2013-03-19 20:22:00,
2013-03-19 14:32:00,50.0,-4.0,-100.00,NNW,337,6.0,9.0,9,-99.99,,,-99.99,,2013-03-19 20:32:00,
2013-03-19 14:42:00,50.0,-1.0,-100.00,WSW,242,4.0,7.0,11,-99.99,,,-99.99,,2013-03-19 20:42:00,
2013-03-19 14:52:00,51.0,4.0,-100.00,NW,311,4.0,6.0,14,-99.99,,,-99.99,,2013-03-19 20:52:00,
2013-03-19 15:01:00,51.0,4.0,-100.00,NW,311,4.0,6.0,14,-99.99,,,-99.99,,2013-03-19 21:01:00,
2013-03-19 15:11:00,51.0,-5.0,-100.00,WSW,246,2.0,7.0,9,-99.99,,,-99.99,,2013-03-19 21:11:00,
2013-03-19 15:33:00,52.0,-3.0,-100.00,NW,319,3.0,7.0,10,-99.99,,,-99.99,,2013-03-19 21:33:00,
2013-03-19 15:42:00,52.0,0.0,-100.00,NNW,343,6.0,9.0,11,-99.99,,,-99.99,,2013-03-19 21:42:00,
2013-03-19 15:52:00,53.0,-9.0,-100.00,NNE,12,6.0,10.0,7,-99.99,,,-99.99,,2013-03-19 21:52:00,
2013-03-19 16:02:00,53.0,-9.0,-100.00,NNE,12,6.0,10.0,7,-99.99,,,-99.99,,2013-03-19 22:02:00,
2013-03-19 16:12:00,52.0,-9.0,-100.00,NW,326,7.0,9.0,7,-99.99,,,-99.99,,2013-03-19 22:12:00,
2013-03-19 16:22:00,53.0,-7.0,-100.00,NW,320,8.0,10.0,7,-99.99,,,-99.99,,2013-03-19 22:22:00,
2013-03-19 16:32:00,53.0,-7.0,-100.00,NW,320,8.0,10.0,7,-99.99,,,-99.99,,2013-03-19 22:32:00,
2013-03-19 16:43:00,53.0,-3.0,-100.00,North,357,4.0,10.0,9,-99.99,,,-99.99,,2013-03-19 22:43:00,
2013-03-19 16:52:00,53.0,-7.0,-100.00,NNW,343,9.0,12.0,7,-99.99,,,-99.99,,2013-03-19 22:52:00,
2013-03-19 17:02:00,53.0,-5.0,-100.00,NNW,346,8.0,12.0,8,-99.99,,,-99.99,,2013-03-19 23:02:00,
2013-03-19 17:12:00,54.0,-1.0,-100.00,NNE,17,4.0,8.0,10,-99.99,,,-99.99,,2013-03-19 23:12:00,
2013-03-19 17:22:00,54.0,2.0,-100.00,North,0,7.0,9.0,11,-99.99,,,-99.99,,2013-03-19 23:22:00,
2013-03-19 17:32:00,53.0,0.0,-100.00,NNE,17,9.0,11.0,10,-99.99,,,-99.99,,2013-03-19 23:32:00,
2013-03-19 17:42:00,53.0,0.0,-100.00,NNE,17,9.0,11.0,10,-99.99,,,-99.99,,2013-03-19 23:42:00,
2013-03-19 17:51:00,53.0,-1.0,-100.00,NNE,31,8.0,12.0,10,-99.99,,,-99.99,,2013-03-19 23:51:00,
2013-03-19 18:02:00,54.0,0.0,-100.00,NNE,23,7.0,11.0,10,-99.99,,,-99.99,,2013-03-20 00:02:00,
2013-03-19 18:12:00,53.0,-5.0,-100.00,North,2,8.0,11.0,8,-99.99,,,-99.99,,2013-03-20 00:12:00,
2013-03-19 18:22:00,53.0,-6.0,-100.00,NNW,336,8.0,11.0,8,-99.99,,,-99.99,,2013-03-20 00:22:00,
2013-03-19 18:32:00,53.0,-6.0,-100.00,NNW,336,8.0,11.0,8,-99.99,,,-99.99,,2013-03-20 00:32:00,
2013-03-19 18:42:00,53.0,-5.0,-100.00,North,1,8.0,16.0,8,-99.99,,,-99.99,,2013-03-20 00:42:00,
2013-03-19 18:52:00,53.0,-7.0,-100.00,NNW,342,11.0,13.0,8,-99.99,,,-99.99,,2013-03-20 00:52:00,
2013-03-19 19:02:00,52.0,-5.0,-100.00,North,2,9.0,13.0,9,-99.99,,,-99.99,,2013-03-20 01:02:00,
2013-03-19 19:12:00,52.0,-10.0,-100.00,NNW,346,8.0,13.0,7,-99.99,,,-99.99,,2013-03-20 01:12:00,
2013-03-19 19:22:00,51.0,-6.0,-100.00,NNW,348,8.0,11.0,8,-99.99,,,-99.99,,2013-03-20 01:22:00,
2013-03-19 19:32:00,50.0,-4.0,-100.00,NNW,339,8.0,9.0,10,-99.99,,,-99.99,,2013-03-20 01:32:00,
2013-03-19 19:42:00,49.0,-4.0,-100.00,NNW,341,5.0,7.0,10,-99.99,,,-99.99,,2013-03-20 01:42:00,
2013-03-19 19:52:00,49.0,-4.0,-100.00,NNW,341,5.0,7.0,10,-99.99,,,-99.99,,2013-03-20 01:52:00,
2013-03-19 20:02:00,47.0,-4.0,-100.00,NE,39,3.0,4.0,11,-99.99,,,-99.99,,2013-03-20 02:02:00,
2013-03-19 20:11:00,46.0,-4.0,-100.00,NE,56,6.0,6.0,11,-99.99,,,-99.99,,2013-03-20 02:11:00,
2013-03-19 20:21:00,44.0,-5.0,-100.00,ENE,72,8.0,8.0,12,-99.99,,,-99.99,,2013-03-20 02:21:00,
2013-03-19 20:32:00,44.0,-5.0,-100.00,ENE,72,8.0,8.0,12,-99.99,,,-99.99,,2013-03-20 02:32:00,
2013-03-19 20:42:00,45.0,-6.0,-100.00,ENE,77,6.0,7.0,11,-99.99,,,-99.99,,2013-03-20 02:42:00,
2013-03-19 20:52:00,45.0,-4.0,-100.00,ENE,67,6.0,7.0,12,-99.99,,,-99.99,,2013-03-20 02:52:00,
2013-03-19 21:01:00,45.0,-3.0,-100.00,East,80,6.0,8.0,13,-99.99,,,-99.99,,2013-03-20 03:01:00,
2013-03-19 21:12:00,45.0,0.0,-100.00,East,79,3.0,7.0,14,-99.99,,,-99.99,,2013-03-20 03:12:00,
2013-03-19 21:22:00,44.0,0.0,-100.00,East,83,6.0,7.0,15,-99.99,,,-99.99,,2013-03-20 03:22:00,
2013-03-19 21:33:00,45.0,0.0,-100.00,East,81,5.0,6.0,15,-99.99,,,-99.99,,2013-03-20 03:33:00,
2013-03-19 21:42:00,44.0,-1.0,-100.00,ENE,68,8.0,8.0,14,-99.99,,,-99.99,,2013-03-20 03:42:00,
2013-03-19 21:52:00,44.0,-1.0,-100.00,ENE,68,8.0,8.0,14,-99.99,,,-99.99,,2013-03-20 03:52:00,
2013-03-19 22:02:00,44.0,-2.0,-100.00,North,3,0.0,2.0,14,-99.99,,,-99.99,,2013-03-20 04:02:00,
2013-03-19 22:12:00,43.0,-4.0,-100.00,East,83,2.0,4.0,13,-99.99,,,-99.99,,2013-03-20 04:12:00,
2013-03-19 22:22:00,41.0,-2.0,-100.00,ESE,106,3.0,3.0,16,-99.99,,,-99.99,,2013-03-20 04:22:00,
2013-03-19 22:32:00,41.0,-1.0,-100.00,East,94,3.0,4.0,16,-99.99,,,-99.99,,2013-03-20 04:32:00,
2013-03-19 22:43:00,40.0,4.0,-100.00,SSE,156,2.0,3.0,21,-99.99,,,-99.99,,2013-03-20 04:43:00,
2013-03-19 22:52:00,39.0,3.0,-100.00,SSE,166,1.0,2.0,21,-99.99,,,-99.99,,2013-03-20 04:52:00,
2013-03-19 23:02:00,39.0,2.0,-100.00,East,94,0.0,2.0,20,-99.99,,,-99.99,,2013-03-20 05:02:00,
2013-03-19 23:12:00,39.0,3.0,-100.00,SE,130,3.0,4.0,21,-99.99,,,-99.99,,2013-03-20 05:12:00,
2013-03-19 23:22:00,37.0,4.0,-100.00,ESE,115,5.0,6.0,23,-99.99,,,-99.99,,2013-03-20 05:22:00,
2013-03-19 23:32:00,37.0,4.0,-100.00,ESE,115,5.0,6.0,23,-99.99,,,-99.99,,2013-03-20 05:32:00,
2013-03-19 23:41:00,38.0,3.0,-100.00,SE,127,6.0,6.0,22,-99.99,,,-99.99,,2013-03-20 05:41:00,
2013-03-19 23:52:00,36.0,8.0,-100.00,SSE,166,2.0,4.0,30,-99.99,,,-99.99,,2013-03-20 05:52:00,